#timestamp,LO_Frequency,Hit,StdDev 
1533261615.0,286047000.3,N
1533261615.9,286047000.3,N
1533261635.7,286047001.2,N
1533261655.6,286046998.1,N
1533261675.4,286046998.8,N
1533261695.3,286046999.6,N
1533261715.1,286046998.9,N
1533261716.0,286046998.9,N
1533261735.8,286046999.0,N
1533261755.7,286046996.9,N
1533261775.5,286046999.4,N
1533261795.3,286046996.6,N
1533261815.2,286046999.0,N
1533261835.0,286046999.4,N
1533261835.9,286046999.4,N
1533261855.8,286046998.3,N
1533261875.6,286046999.1,N
1533261895.4,286046998.9,N
1533261915.3,286047001.2,N
1533261935.1,286046998.9,N
1533261955.8,286046999.0,N
1533261975.7,286046998.5,N
1533261995.5,286046998.6,N
1533262015.4,286046998.6,N
1533262035.2,286046998.9,N
1533262055.0,286046996.6,N
1533262055.9,286046996.6,N
1533262075.8,286046999.0,N
1533262095.6,286046996.5,N
1533262115.5,286046998.7,N
1533262135.3,286046996.9,N
1533262155.1,286046999.1,N
1533262175.9,286046998.9,N
1533262195.7,286046998.7,N
1533262215.6,286046998.8,N
1533262235.4,286046999.4,N
1533262255.2,286046999.6,N
1533262275.1,286046999.2,N
1533262276.0,286046999.2,N
1533262295.8,286046999.4,N
1533262315.7,286046998.7,N
1533262335.5,286046998.3,N
1533262355.3,286046999.6,N
1533262375.2,286046998.8,N
1533262395.9,286046996.5,Y
1533262415.7,286046998.3,P
1533262435.6,286046998.7,P
1533262455.4,286046998.6,P
1533262475.3,286047001.2,Y
1533262495.1,286047000.6,P
1533262496.0,286047000.6,N
1533262515.8,286046998.1,N
1533262535.7,286047001.1,N
1533262555.5,286046999.2,N
1533262575.3,286046998.5,N
1533262595.2,286046998.9,N
1533262615.0,286046998.6,N
1533262615.9,286046998.6,N
1533262635.8,286046998.5,N
1533262655.6,286047000.7,N
1533262675.4,286047000.0,N
1533262695.3,286046998.3,N
1533262715.1,286046998.8,N
1533262735.8,286046998.1,N
1533262755.7,286046998.5,N
1533262775.5,286046998.5,N
1533262795.4,286046999.3,N
1533262815.2,286046999.0,N
1533262835.0,286046998.6,N
1533262835.9,286046998.6,N
1533262855.8,286046998.9,N
1533262875.6,286046998.5,N
1533262895.5,286046998.4,N
1533262915.3,286046998.4,N
1533262935.1,286046998.6,N
1533262955.9,286047001.1,N
1533262975.7,286046998.3,N
1533262995.5,286046998.7,N
1533263015.4,286046999.0,N
1533263035.4,286046999.3,N
1533263055.3,286046998.2,N
1533263075.1,286046998.8,N
1533263095.8,286046996.5,Y
1533263115.7,286046999.4,P
1533263135.5,286046999.0,P
1533263155.4,286046998.6,P
1533263175.2,286046998.8,Y
1533263195.0,286047000.5,P
1533263195.9,286047000.5,N
1533263215.8,286047000.4,N
1533263235.6,286047000.3,N
1533263255.5,286047000.5,N
1533263275.3,286047000.0,N
1533263295.1,286046999.8,N
1533263315.9,286047002.3,Y
1533263335.7,286047000.1,P
1533263355.5,286046999.9,P
1533263375.4,286047002.4,P
1533263395.2,286047002.7,N
1533263415.1,286047002.4,N
1533263416.0,286047011.9,Y
1533263435.8,286047001.1,P
1533263455.6,286046998.2,P
1533263475.5,286046998.2,N
1533263495.3,286047001.2,N
1533263515.2,286046998.3,N
1533263535.9,286046998.4,N
1533263555.7,286046998.3,N
1533263575.6,286046998.5,N
1533263595.4,286047000.8,N
1533263615.3,286047000.6,N
1533263635.1,286047000.9,N
1533263636.0,286047000.9,N
1533263655.8,286047000.3,N
1533263675.7,286047000.1,N
1533263695.5,286047001.2,N
1533263715.3,286047000.8,N
1533263735.2,286046998.6,N
1533263755.0,286046998.5,N
1533263755.9,286046998.5,N
1533263775.8,286047001.1,N
1533263795.6,286046998.2,N
1533263815.4,286046998.2,N
1533263835.3,286047001.0,N
1533263855.1,286047000.8,N
1533263875.8,286046998.2,N
1533263895.7,286047001.0,N
1533263915.5,286046998.6,N
1533263935.4,286047001.2,N
1533263955.2,286047000.8,N
1533263975.0,286046998.6,N
1533263975.9,286046998.6,N
1533263995.8,286047000.7,N
1533264015.6,286047000.5,N
1533264035.4,286047000.6,N
1533264055.3,286047001.2,N
1533264075.1,286047001.1,N
1533264095.9,286047000.9,N
1533264115.7,286047000.4,N
1533264135.5,286046999.8,N
1533264155.4,286046999.7,N
1533264175.2,286047002.6,N
1533264195.0,286047002.0,N
1533264195.9,286047002.0,N
1533264215.8,286047001.9,N
1533264235.6,286047001.9,N
1533264255.5,286047001.4,N
1533264275.3,286047004.0,N
1533264295.1,286047004.4,N
1533264315.9,286047001.7,N
1533264335.7,286047001.5,N
1533264355.5,286047004.4,N
1533264375.4,286047003.7,N
1533264395.2,286047004.2,N
1533264415.1,286047003.5,N
1533264416.0,286047003.5,N
1533264435.8,286047003.9,N
1533264455.6,286047004.3,N
1533264475.5,286047003.7,N
1533264495.3,286047004.0,N
1533264515.1,286047003.8,N
1533264535.9,286047003.0,N
1533264555.7,286047003.7,N
1533264575.6,286047004.2,N
1533264595.4,286047003.8,N
1533264615.2,286047003.5,N
1533264635.1,286047003.5,N
1533264636.0,286047003.5,N
1533264655.8,286047003.2,N
1533264675.7,286047003.7,N
1533264695.5,286047003.2,N
1533264715.3,286047003.3,Y
1533264735.2,286047002.1,P
1533264755.0,286046999.8,N
1533264755.9,286046999.8,N
1533264775.8,286047002.7,N
1533264795.6,286047000.9,N
1533264815.4,286047000.9,N
1533264835.3,286047000.6,N
1533264855.1,286047000.3,N
1533264875.8,286047002.7,N
1533264895.7,286047000.2,N
1533264915.5,286047002.7,N
1533264935.4,286047002.0,N
1533264955.2,286047002.1,N
1533264975.0,286047002.4,N
1533264975.9,286047002.4,N
1533264995.8,286046999.7,N
1533265015.6,286047002.6,N
1533265035.5,286047002.4,N
1533265055.3,286046999.7,N
1533265075.1,286047002.0,N
1533265095.9,286047002.3,N
1533265115.7,286047002.5,N
1533265135.5,286047002.5,N
1533265155.4,286047002.1,N
1533265175.2,286047002.1,N
1533265195.1,286047002.1,N
1533265196.0,286047002.1,N
